Total_Precipitation_Accumulation
0.06 0.03 0.04 0.03 0.07 0.08 0.08 0.10 0.12 0.13 0.12 0.11 0.10 0.11 0.12 0.10 0.08 0.07 0.07 0.09 0.14 0.20 0.24 0.25 0.22 0.20 0.20 0.20 0.16 0.11 0.09 0.08 0.11 0.12 0.16 0.19 0.20 0.20 0.21 0.22 0.28 0.25 0.14
0.04 0.02 0.03 0.02 0.04 0.07 0.08 0.11 0.12 0.12 0.13 0.13 0.14 0.15 0.15 0.10 0.08 0.07 0.07 0.11 0.17 0.21 0.22 0.22 0.20 0.18 0.18 0.15 0.11 0.09 0.08 0.09 0.16 0.22 0.26 0.28 0.31 0.25 0.23 0.23 0.31 0.34 0.21
0.04 0.02 0.02 0.02 0.02 0.05 0.07 0.11 0.11 0.10 0.11 0.12 0.13 0.12 0.10 0.08 0.07 0.06 0.07 0.11 0.16 0.17 0.16 0.13 0.11 0.11 0.11 0.09 0.08 0.08 0.09 0.13 0.21 0.33 0.59 0.51 0.37 0.24 0.23 0.22 0.19 0.17 0.20
0.04 0.02 0.02 0.03 0.03 0.04 0.05 0.09 0.13 0.12 0.11 0.10 0.11 0.10 0.08 0.08 0.08 0.07 0.08 0.11 0.13 0.13 0.10 0.08 0.07 0.07 0.08 0.07 0.06 0.08 0.11 0.17 0.30 0.52 1.01 0.76 0.49 0.30 0.25 0.23 0.19 0.16 0.18
0.04 0.02 0.03 0.03 0.05 0.06 0.05 0.06 0.12 0.14 0.14 0.13 0.13 0.12 0.11 0.10 0.09 0.09 0.10 0.11 0.12 0.12 0.13 0.12 0.10 0.08 0.07 0.07 0.07 0.10 0.17 0.25 0.45 0.80 1.25 1.08 0.83 0.52 0.33 0.29 0.30 0.24 0.22
0.07 0.04 0.04 0.05 0.06 0.09 0.08 0.08 0.11 0.13 0.15 0.17 0.16 0.15 0.14 0.13 0.11 0.10 0.10 0.11 0.12 0.13 0.16 0.18 0.13 0.08 0.07 0.07 0.08 0.14 0.22 0.36 0.54 0.88 1.34 1.28 0.93 0.56 0.38 0.34 0.34 0.29 0.25
0.16 0.13 0.08 0.08 0.08 0.10 0.11 0.12 0.14 0.13 0.15 0.18 0.18 0.16 0.14 0.14 0.13 0.12 0.12 0.11 0.13 0.17 0.19 0.15 0.10 0.06 0.06 0.07 0.10 0.15 0.25 0.45 0.66 1.12 1.39 1.23 1.11 0.65 0.45 0.40 0.38 0.32 0.24
0.25 0.20 0.16 0.14 0.11 0.13 0.16 0.17 0.20 0.21 0.20 0.21 0.19 0.17 0.15 0.14 0.14 0.16 0.15 0.15 0.18 0.22 0.20 0.12 0.06 0.04 0.04 0.05 0.08 0.14 0.27 0.38 0.56 1.08 1.39 1.11 0.87 0.58 0.45 0.42 0.38 0.32 0.27
0.32 0.32 0.31 0.23 0.20 0.21 0.23 0.22 0.23 0.26 0.24 0.21 0.20 0.22 0.22 0.22 0.22 0.21 0.20 0.19 0.21 0.22 0.16 0.09 0.05 0.04 0.04 0.04 0.06 0.10 0.21 0.37 0.60 0.82 0.88 0.90 0.71 0.53 0.40 0.31 0.23 0.21 0.20
0.49 0.49 0.50 0.52 0.44 0.30 0.28 0.29 0.28 0.31 0.29 0.24 0.21 0.22 0.24 0.23 0.21 0.20 0.17 0.18 0.18 0.18 0.13 0.09 0.08 0.06 0.04 0.04 0.04 0.07 0.15 0.25 0.35 0.63 0.93 0.82 0.62 0.58 0.53 0.36 0.24 0.18 0.16
0.69 0.66 0.58 0.64 0.63 0.44 0.37 0.32 0.33 0.36 0.33 0.26 0.21 0.20 0.21 0.31 0.35 0.30 0.20 0.21 0.18 0.17 0.15 0.13 0.09 0.07 0.05 0.03 0.04 0.06 0.08 0.15 0.35 0.69 1.00 0.80 0.63 0.66 0.62 0.47 0.32 0.24 0.19
0.90 0.87 0.79 0.64 0.57 0.54 0.43 0.40 0.43 0.41 0.40 0.33 0.32 0.26 0.33 0.58 0.70 0.54 0.52 0.37 0.27 0.23 0.20 0.16 0.12 0.09 0.06 0.04 0.05 0.05 0.05 0.13 0.37 0.72 0.72 0.59 0.63 0.73 0.76 0.60 0.41 0.30 0.27
1.19 0.99 1.05 0.90 0.73 0.82 0.83 0.68 0.64 0.61 0.60 0.54 0.65 0.64 0.68 0.79 0.73 0.72 0.82 0.57 0.42 0.35 0.34 0.33 0.18 0.15 0.12 0.13 0.11 0.08 0.09 0.16 0.32 0.52 0.57 0.56 0.62 0.78 0.86 0.71 0.55 0.45 0.41
1.57 1.34 1.23 1.20 1.05 1.06 1.20 1.06 0.88 0.80 0.84 0.83 0.90 0.81 0.91 1.01 0.96 0.93 1.03 0.82 0.72 0.69 0.73 0.65 0.48 0.37 0.28 0.22 0.18 0.17 0.18 0.19 0.27 0.43 0.59 0.58 0.63 0.81 0.92 0.88 0.73 0.61 0.54
1.70 1.60 1.35 1.37 1.31 1.34 1.46 1.30 1.15 1.10 1.04 1.02 1.08 1.01 1.02 1.07 1.13 1.20 1.07 1.02 0.93 0.93 0.94 0.82 0.74 0.68 0.54 0.49 0.38 0.33 0.36 0.32 0.34 0.42 0.53 0.58 0.59 0.76 0.97 1.01 0.93 0.82 0.78
1.47 1.56 1.62 1.55 1.49 1.37 1.42 1.40 1.28 1.17 1.20 1.16 1.18 1.14 1.07 1.13 1.32 1.38 1.31 1.28 1.23 1.24 1.32 1.17 1.01 1.00 0.87 0.81 0.71 0.66 0.66 0.63 0.60 0.63 0.77 0.74 0.65 0.71 0.91 1.09 1.13 1.11 1.09
1.40 1.48 1.61 1.61 1.57 1.52 1.52 1.57 1.50 1.37 1.34 1.36 1.43 1.49 1.37 1.31 1.48 1.52 1.63 1.61 1.55 1.52 1.55 1.54 1.43 1.39 1.28 1.21 1.08 0.89 0.85 0.92 0.97 0.90 0.94 1.02 0.89 0.86 0.86 0.96 1.06 1.15 1.21
1.18 1.32 1.37 1.49 1.52 1.67 1.82 1.94 1.77 1.73 1.69 1.70 1.61 1.63 1.54 1.50 1.63 1.77 1.84 1.84 1.83 1.79 1.87 1.92 1.88 1.70 1.62 1.49 1.37 1.15 1.07 1.06 1.13 1.22 1.20 1.26 1.37 1.27 1.13 1.04 1.04 1.12 1.22
1.03 1.30 1.42 1.53 1.68 1.75 1.90 2.11 2.10 2.14 2.11 2.07 2.05 1.94 1.98 2.04 1.97 2.05 2.13 2.21 2.23 2.28 2.29 2.20 2.22 2.00 1.97 1.88 1.65 1.52 1.33 1.26 1.25 1.25 1.32 1.31 1.37 1.38 1.35 1.28 1.14 1.12 1.22
1.06 1.33 1.55 1.72 1.93 2.18 2.23 2.39 2.37 2.56 2.71 2.72 2.83 2.74 2.58 2.61 2.61 2.69 2.67 2.68 2.68 2.74 2.62 2.57 2.54 2.35 2.19 2.16 1.83 1.67 1.52 1.40 1.37 1.32 1.33 1.33 1.25 1.17 1.21 1.24 1.28 1.18 1.21
1.46 1.52 1.63 1.76 1.95 2.15 2.44 2.77 2.97 3.08 3.31 3.42 3.50 3.64 3.59 3.52 3.59 3.61 3.52 3.41 3.27 3.13 2.97 2.87 2.70 2.52 2.31 2.21 2.08 1.77 1.42 1.21 1.22 1.19 1.19 1.27 1.28 1.22 1.19 1.20 1.20 1.14 1.09
1.70 1.71 1.79 1.88 2.12 2.41 2.77 3.20 3.64 3.87 4.06 4.08 4.11 4.30 4.40 4.39 4.52 4.62 4.51 4.29 4.09 3.72 3.29 2.97 2.76 2.62 2.39 2.32 2.22 2.12 1.68 1.34 1.13 0.94 0.98 1.02 1.06 1.14 1.12 1.06 1.06 1.10 1.09
1.71 1.81 1.91 2.20 2.61 3.06 3.53 4.03 4.48 4.79 4.87 4.81 4.54 4.60 4.72 4.68 4.72 4.88 4.85 4.60 4.23 3.66 3.14 2.92 2.80 2.65 2.51 2.41 2.26 2.28 1.93 1.60 1.32 1.01 0.86 0.80 0.84 0.85 0.85 0.88 0.90 0.95 0.94
1.70 1.88 2.00 2.33 2.89 3.39 3.85 4.50 5.02 5.33 5.50 5.60 5.36 5.04 4.88 4.71 4.58 4.50 4.37 3.98 3.54 3.18 2.90 2.78 2.74 2.53 2.50 2.39 2.28 2.01 1.79 1.57 1.40 1.16 0.95 0.81 0.76 0.72 0.72 0.74 0.77 0.84 0.88
1.64 1.69 1.80 2.21 2.80 3.54 4.27 4.80 5.27 5.65 5.78 5.75 5.39 5.00 4.58 4.24 3.84 3.50 3.17 2.93 2.80 2.59 2.38 2.29 2.26 2.20 2.08 1.98 1.95 1.88 1.78 1.58 1.32 1.14 1.02 0.91 0.87 0.81 0.76 0.77 0.78 0.81 0.85
1.37 1.54 1.78 2.13 2.82 3.59 4.18 4.69 5.05 5.38 5.42 5.15 4.73 4.27 3.95 3.56 3.13 2.72 2.53 2.32 2.17 1.99 1.77 1.64 1.62 1.66 1.71 1.76 1.80 1.76 1.68 1.62 1.48 1.36 1.24 1.08 1.03 1.00 0.90 0.86 0.86 0.88 0.93